Total_Precipitation_Accumulation
-0.01 -0.01 -0.01 -0.00 -0.01 -0.01 -0.01 -0.01 -0.01 -0.01 -0.02 -0.15 -0.18 -0.18 -0.08 -0.06 -0.06 -0.04 -0.01 -0.08 -0.08 -0.02 -0.08 -0.10 -0.15 -0.15 -0.17 -0.20 -0.14 -0.14 -0.36 -0.39 -0.51 -0.51 -0.47 -0.39 -0.39 -0.46 -0.35 -0.15 -0.15 -0.16 -0.01 0.16 0.04 0.04 0.06 0.00 0.00 0.00 0.00 0.00 0.00 0.00 0.00 0.00 0.00 0.00 0.00 0.00 0.00 0.00 0.00 0.00 0.00 0.00 0.00 0.00 -0.04 -0.04 -0.01 0.00 0.00 0.00 0.00 0.00 0.00 0.00 0.00 0.00 0.00 0.00 0.02 0.03 0.02 0.02 0.01 0.00 0.00 0.00 0.00 0.01 0.01 0.01 0.00 0.00 0.00 0.00 0.00 0.00 0.00 0.00 0.00
-0.01 -0.00 -0.00 -0.00 -0.01 -0.01 -0.01 -0.01 -0.01 -0.01 -0.02 -0.05 -0.03 -0.03 -0.11 -0.07 -0.07 -0.01 -0.01 -0.18 -0.18 -0.12 -0.11 -0.12 -0.27 -0.27 -0.33 -0.14 -0.29 -0.29 -0.37 -0.50 -0.49 -0.49 -0.49 -0.48 -0.48 -0.48 -0.42 -0.21 -0.21 -0.14 0.09 0.10 0.14 0.14 0.10 0.00 0.00 0.00 0.00 0.00 0.00 0.00 0.00 0.00 0.00 0.00 0.00 0.00 0.00 0.00 0.00 0.00 0.00 0.00 0.00 0.00 -0.02 -0.02 -0.02 0.00 0.00 0.00 0.00 0.00 0.00 0.00 0.00 0.00 0.00 0.00 0.00 0.03 0.03 0.03 0.01 0.00 0.00 0.00 0.00 0.00 0.00 0.00 0.00 0.00 0.00 0.00 0.00 0.00 0.00 0.00 0.00
-0.00 -0.00 -0.00 -0.00 -0.01 -0.01 -0.02 -0.02 -0.02 -0.02 -0.02 -0.03 -0.06 -0.06 -0.03 -0.03 -0.03 -0.10 -0.02 -0.03 -0.03 -0.20 -0.29 -0.24 -0.30 -0.30 -0.37 -0.38 -0.39 -0.39 -0.35 -0.49 -0.54 -0.54 -0.49 -0.45 -0.45 -0.36 -0.20 -0.05 -0.05 -0.02 0.07 0.01 0.07 0.07 0.09 0.08 0.00 0.00 0.01 0.00 0.00 0.00 0.00 0.00 0.00 0.00 0.00 0.00 0.00 0.00 0.00 0.00 0.00 0.00 0.00 0.00 -0.00 -0.00 -0.01 0.00 0.00 0.00 0.00 0.00 0.00 0.00 0.00 0.00 0.00 0.00 0.00 0.01 0.03 0.03 0.03 0.01 0.01 0.01 0.00 0.00 0.00 0.00 0.00 0.00 0.00 0.00 0.00 0.00 0.00 0.00 0.00
-0.00 -0.00 -0.00 -0.01 -0.03 -0.03 -0.05 -0.04 -0.04 -0.04 -0.04 -0.06 -0.04 -0.04 -0.03 -0.03 -0.03 -0.03 -0.01 -0.01 -0.01 -0.11 -0.25 -0.40 -0.43 -0.43 -0.38 -0.39 -0.40 -0.40 -0.42 -0.47 -0.46 -0.46 -0.47 -0.46 -0.46 -0.18 -0.05 -0.02 -0.02 -0.00 0.00 0.01 0.08 0.08 0.13 0.14 0.02 0.02 0.01 0.00 0.00 0.00 0.00 0.00 0.00 0.00 0.00 0.00 0.00 0.00 0.00 0.00 0.00 0.00 0.00 0.00 0.00 0.00 -0.00 0.00 0.00 0.00 0.00 0.00 0.00 0.00 0.00 0.00 0.00 0.00 0.00 0.01 0.03 0.03 0.02 0.01 0.01 0.01 0.00 0.00 0.00 0.00 0.00 0.00 0.00 0.00 0.00 0.00 0.00 0.00 0.00
0.00 -0.00 -0.00 -0.00 -0.03 -0.03 -0.05 -0.08 -0.08 -0.08 -0.05 -0.06 -0.05 -0.05 -0.04 -0.03 -0.03 -0.02 -0.02 -0.01 -0.01 -0.09 -0.14 -0.25 -0.29 -0.29 -0.37 -0.49 -0.35 -0.35 -0.38 -0.39 -0.46 -0.46 -0.51 -0.48 -0.48 -0.17 -0.00 0.00 0.00 0.00 0.01 0.15 0.21 0.21 0.15 0.14 0.03 0.03 0.02 0.01 0.00 0.00 0.00 0.00 0.00 0.00 0.00 0.00 0.00 0.00 0.00 0.00 0.00 0.00 0.00 0.02 0.01 0.01 0.00 0.00 0.00 0.00 0.00 -0.00 -0.00 0.00 0.00 0.00 0.00 0.00 0.00 0.01 0.01 0.01 0.02 0.00 0.00 0.00 0.00 0.00 0.00 0.00 0.00 0.00 0.00 0.00 0.00 0.00 0.00 0.00 0.00
0.00 0.00 0.00 0.00 -0.01 -0.01 -0.02 -0.06 -0.05 -0.05 -0.04 -0.06 -0.07 -0.07 -0.04 -0.02 -0.02 -0.02 -0.02 -0.02 -0.02 -0.09 -0.12 -0.26 -0.28 -0.28 -0.41 -0.52 -0.51 -0.51 -0.26 -0.24 -0.40 -0.40 -0.39 -0.08 -0.08 0.04 0.02 0.00 0.00 0.00 0.00 0.03 0.14 0.14 0.18 0.12 0.08 0.08 0.04 0.01 0.00 0.00 0.00 0.00 0.00 0.00 0.00 0.00 0.00 0.00 0.00 0.00 0.00 0.00 0.00 0.00 0.00 0.00 0.00 0.00 0.00 0.00 0.00 -0.00 -0.00 -0.00 0.00 0.00 0.00 0.00 0.00 0.00 0.01 0.01 0.01 0.00 0.00 0.00 0.00 0.00 0.00 0.00 0.00 0.00 0.00 0.00 0.00 0.00 0.00 0.00 0.00
0.00 0.00 0.00 0.00 -0.00 -0.00 -0.01 -0.09 -0.11 -0.11 -0.04 -0.08 -0.06 -0.06 -0.04 -0.02 -0.02 -0.01 -0.01 -0.01 -0.01 -0.06 -0.11 -0.17 -0.29 -0.29 -0.41 -0.61 -0.53 -0.53 -0.42 -0.39 -0.19 -0.19 -0.17 0.09 0.09 0.06 0.07 0.07 0.07 0.05 0.01 0.01 0.07 0.07 0.07 0.10 0.10 0.10 0.07 0.03 0.01 0.01 0.00 0.00 0.00 0.00 0.00 0.00 0.00 0.00 0.00 0.00 0.00 0.00 0.00 0.00 0.00 0.00 0.00 0.00 0.00 0.00 0.00 -0.00 -0.00 -0.00 0.00 0.00 0.00 0.00 0.00 0.00 0.01 0.01 0.01 0.00 0.00 0.00 0.00 0.00 0.00 0.00 0.00 0.00 0.00 0.00 0.00 0.00 0.00 0.00 0.00
0.00 0.00 0.00 0.00 -0.00 -0.00 -0.00 -0.03 -0.07 -0.07 -0.04 -0.05 -0.05 -0.05 -0.04 -0.02 -0.02 -0.02 -0.01 -0.03 -0.03 -0.03 -0.06 -0.12 -0.35 -0.35 -0.53 -0.61 -0.57 -0.57 -0.50 -0.47 -0.19 -0.19 -0.03 -0.03 -0.03 0.19 0.14 0.07 0.07 0.06 0.01 0.06 0.03 0.03 0.03 0.04 0.10 0.10 0.11 0.07 0.03 0.03 0.00 0.00 0.00 0.00 0.00 0.00 0.00 0.00 0.00 0.00 0.00 0.00 0.00 0.00 0.00 0.00 0.00 0.00 0.00 0.00 0.00 0.00 0.00 0.00 0.00 0.00 0.00 0.00 0.00 0.00 0.00 0.00 0.00 0.00 -0.00 -0.00 0.00 0.00 0.00 0.00 0.00 0.00 0.00 0.00 0.00 0.00 0.00 0.00 0.00
0.00 0.00 0.00 0.00 -0.00 -0.00 -0.00 -0.00 -0.00 -0.00 -0.05 -0.03 -0.05 -0.05 -0.04 -0.03 -0.03 -0.03 -0.02 -0.05 -0.05 -0.06 -0.09 -0.14 -0.30 -0.30 -0.28 -0.54 -0.54 -0.54 -0.50 -0.46 -0.40 -0.40 -0.22 -0.03 -0.03 0.08 0.13 0.13 0.13 0.10 0.07 0.14 0.17 0.17 0.14 0.14 0.09 0.09 0.12 0.10 0.07 0.07 0.03 0.00 0.00 0.00 0.00 0.00 0.00 0.00 0.00 0.00 0.00 0.00 0.00 0.00 0.01 0.01 0.00 0.00 0.00 0.00 0.03 0.00 0.00 0.00 0.00 0.00 0.00 0.00 0.00 0.00 0.00 0.00 0.01 0.00 0.00 0.00 0.00 0.00 0.00 0.00 0.00 0.00 0.00 0.00 0.00 0.00 0.00 0.00 0.00
0.00 0.00 0.00 0.00 0.00 0.00 -0.00 -0.00 -0.00 -0.00 -0.00 -0.01 -0.05 -0.05 -0.08 -0.05 -0.05 -0.02 -0.02 -0.04 -0.04 -0.08 -0.15 -0.21 -0.24 -0.24 -0.38 -0.39 -0.44 -0.44 -0.45 -0.46 -0.45 -0.45 -0.17 -0.03 -0.03 0.02 0.11 0.14 0.14 0.10 0.07 0.12 0.22 0.22 0.30 0.24 0.20 0.20 0.08 0.11 0.07 0.07 0.05 0.01 0.01 0.00 0.00 0.00 0.00 0.00 0.00 0.00 0.00 0.00 0.00 0.01 0.04 0.04 0.06 -0.00 -0.00 -0.00 0.05 0.01 0.01 0.00 0.00 0.00 0.00 0.00 0.00 0.00 0.00 0.00 0.01 0.00 0.00 0.00 0.00 0.00 0.00 0.00 0.00 0.00 0.00 0.00 0.00 0.00 0.00 0.00 0.00
0.00 0.00 0.00 0.00 0.00 0.00 0.00 -0.00 -0.00 -0.00 -0.00 -0.05 -0.08 -0.08 -0.08 -0.04 -0.04 -0.03 -0.02 -0.08 -0.08 -0.14 -0.21 -0.30 -0.33 -0.33 -0.40 -0.41 -0.34 -0.34 -0.43 -0.45 -0.32 -0.32 -0.05 -0.02 -0.02 -0.01 0.02 0.10 0.10 0.10 0.04 0.03 0.18 0.18 0.31 0.32 0.14 0.14 0.05 0.08 0.06 0.06 0.05 0.04 0.04 0.01 0.00 0.00 0.00 0.00 0.00 0.00 0.00 0.00 0.00 0.02 0.06 0.06 0.09 0.08 0.03 0.03 0.06 0.01 0.01 0.00 0.00 0.00 0.00 0.00 0.00 0.00 0.00 0.00 0.01 0.01 0.00 0.00 0.00 0.00 0.00 0.00 0.00 0.00 0.00 0.00 0.00 0.00 0.00 0.00 0.00
0.00 0.00 0.00 0.00 0.00 0.00 0.00 0.00 -0.00 -0.00 -0.00 -0.06 -0.09 -0.09 -0.08 -0.05 -0.05 -0.04 -0.09 -0.11 -0.11 -0.25 -0.31 -0.26 -0.28 -0.28 -0.39 -0.45 -0.30 -0.30 -0.27 -0.26 -0.24 -0.24 -0.06 -0.03 -0.03 -0.02 0.00 0.01 0.01 0.04 0.02 0.01 0.06 0.06 0.20 0.30 0.06 0.06 0.04 0.04 0.07 0.07 0.05 0.04 0.04 0.02 0.01 0.00 0.00 0.00 0.00 0.00 0.01 0.01 0.01 0.02 0.03 0.03 0.09 0.09 0.07 0.07 0.11 0.13 0.13 0.00 0.00 0.00 0.00 0.00 0.00 0.00 0.00 0.00 0.00 0.00 0.00 0.00 0.00 0.00 0.00 0.00 0.00 0.00 0.00 0.00 0.00 0.00 0.00 0.00 0.00
0.00 0.00 0.00 0.00 0.00 0.00 0.00 0.00 -0.01 -0.01 -0.00 -0.07 -0.12 -0.12 -0.08 -0.07 -0.07 -0.05 -0.13 -0.16 -0.16 -0.32 -0.22 -0.17 -0.16 -0.16 -0.34 -0.43 -0.48 -0.48 -0.36 -0.34 -0.07 -0.07 0.01 0.07 0.07 0.01 -0.01 0.01 0.01 0.02 0.02 0.01 0.02 0.02 0.06 0.10 0.04 0.04 0.04 0.03 0.04 0.04 0.05 0.05 0.05 0.04 0.01 0.01 0.01 0.00 0.00 0.00 0.01 0.01 0.00 0.02 0.01 0.01 0.03 0.12 0.10 0.10 0.18 0.27 0.27 0.03 0.00 0.00 0.00 0.00 0.00 0.00 0.00 0.00 0.00 0.00 0.00 0.00 0.00 0.00 0.00 0.00 0.00 0.00 0.00 0.00 0.00 0.00 0.00 0.00 0.00
0.00 0.00 0.00 0.00 0.00 0.00 0.00 0.00 0.00 0.00 -0.00 -0.07 -0.12 -0.12 -0.11 -0.07 -0.07 -0.10 -0.13 -0.21 -0.21 -0.31 -0.23 -0.14 -0.13 -0.13 -0.16 -0.32 -0.38 -0.38 -0.41 -0.32 -0.14 -0.14 -0.05 0.01 0.01 0.07 0.07 0.03 0.03 0.08 0.04 0.03 0.01 0.01 0.02 0.04 0.03 0.03 0.03 0.03 0.04 0.04 0.03 0.05 0.05 0.04 0.02 0.01 0.01 0.00 0.00 0.00 0.01 0.01 0.00 0.01 0.02 0.02 0.02 0.07 0.09 0.09 0.16 0.28 0.28 0.03 0.00 0.00 0.00 0.00 0.00 0.00 0.00 0.00 0.00 0.00 0.00 0.00 0.00 0.00 0.00 0.00 0.00 0.00 0.00 0.00 0.00 0.00 0.00 0.00 0.00
0.00 0.00 0.00 0.00 0.00 0.00 0.00 0.00 -0.02 -0.02 -0.03 -0.05 -0.02 -0.02 -0.07 -0.06 -0.06 -0.07 -0.16 -0.26 -0.26 -0.34 -0.29 -0.21 -0.13 -0.13 -0.17 -0.28 -0.38 -0.38 -0.43 -0.40 -0.29 -0.29 -0.06 -0.02 -0.02 0.02 0.07 0.10 0.10 0.05 0.10 0.16 0.14 0.14 0.04 0.05 0.04 0.04 0.03 0.03 0.03 0.03 0.03 0.04 0.04 0.04 0.03 0.01 0.01 0.00 0.00 0.00 0.00 0.00 0.01 0.00 0.04 0.04 0.02 0.08 0.05 0.05 0.14 0.18 0.18 0.25 0.00 0.00 0.00 0.00 0.00 0.00 0.00 0.00 0.00 0.00 0.00 0.00 0.00 0.00 0.00 0.00 0.00 0.00 0.00 0.00 0.00 0.00 0.00 0.00 0.00
0.00 0.00 0.00 0.00 0.00 0.00 0.00 0.00 -0.03 -0.03 -0.03 -0.04 -0.03 -0.03 -0.04 -0.06 -0.06 -0.05 -0.15 -0.29 -0.29 -0.32 -0.29 -0.20 -0.12 -0.12 -0.12 -0.25 -0.36 -0.36 -0.41 -0.37 -0.20 -0.20 -0.07 -0.04 -0.04 0.01 0.02 0.05 0.05 0.04 0.09 0.12 0.11 0.11 0.11 0.06 0.04 0.04 0.03 0.03 0.03 0.03 0.02 0.03 0.03 0.03 0.02 0.01 0.01 0.00 0.00 0.00 0.00 0.00 0.00 0.00 0.03 0.03 0.05 0.12 0.18 0.18 0.17 0.18 0.18 0.23 0.15 0.09 0.09 0.00 0.00 0.00 0.00 0.00 0.00 0.00 0.00 0.00 0.00 0.00 0.00 0.00 0.00 0.00 0.00 0.00 0.00 0.00 0.00 0.00 0.00
0.00 0.00 0.00 0.00 0.00 0.00 0.00 0.00 0.00 0.00 -0.04 -0.09 -0.09 -0.09 -0.07 -0.09 -0.09 -0.03 -0.05 -0.26 -0.26 -0.34 -0.23 -0.05 -0.07 -0.07 -0.09 -0.12 -0.29 -0.29 -0.37 -0.33 -0.16 -0.16 -0.06 -0.04 -0.04 -0.02 0.01 0.03 0.03 0.03 0.08 0.08 0.08 0.08 0.08 0.04 0.03 0.03 0.02 0.02 0.02 0.02 0.02 0.02 0.02 0.02 0.02 0.01 0.01 0.02 0.00 0.00 0.00 0.00 0.00 -0.00 0.01 0.01 0.04 0.14 0.18 0.18 0.19 0.21 0.21 0.16 0.16 0.09 0.09 0.02 0.00 0.00 0.00 0.00 0.00 0.00 0.00 0.00 0.00 0.00 0.00 0.00 0.00 0.00 0.00 0.00 0.00 0.00 0.00 0.00 0.00
0.00 0.00 0.00 0.00 0.00 0.00 0.00 0.00 0.00 0.00 -0.05 -0.08 -0.16 -0.16 -0.23 -0.30 -0.30 -0.25 -0.11 -0.20 -0.20 -0.26 -0.09 -0.02 -0.01 -0.01 -0.03 -0.05 -0.22 -0.22 -0.30 -0.24 -0.11 -0.11 -0.05 -0.04 -0.04 -0.03 -0.01 0.01 0.01 0.02 0.04 0.06 0.05 0.05 0.05 0.04 0.04 0.04 0.03 0.02 0.02 0.02 0.01 0.01 0.01 0.01 0.01 0.01 0.01 -0.01 0.01 0.00 0.00 0.00 0.00 0.00 -0.01 -0.01 0.04 0.16 0.19 0.19 0.22 0.16 0.16 0.13 0.17 0.07 0.07 0.02 0.00 0.00 0.00 0.00 0.00 0.00 0.00 0.00 0.00 0.00 0.00 0.00 0.00 0.00 0.00 0.00 0.00 0.00 0.00 0.00 0.00
0.00 0.00 0.00 0.00 0.00 0.00 0.00 0.00 0.00 0.00 -0.01 -0.02 -0.14 -0.14 -0.22 -0.31 -0.31 -0.32 -0.19 -0.19 -0.19 -0.23 -0.04 -0.02 -0.01 -0.01 -0.01 -0.03 -0.10 -0.10 -0.18 -0.21 -0.08 -0.08 -0.04 -0.03 -0.03 -0.04 -0.02 0.00 0.00 0.02 0.03 0.04 0.05 0.05 0.05 0.04 0.04 0.04 0.03 0.01 0.01 0.01 0.01 0.01 0.01 0.00 0.00 0.00 0.00 -0.02 0.01 0.00 0.00 0.00 0.00 -0.00 0.01 0.01 0.11 0.11 0.19 0.19 0.22 0.13 0.13 0.08 0.11 0.09 0.09 0.04 0.00 0.00 0.00 0.00 0.00 0.00 0.00 0.00 0.00 0.00 0.00 0.00 0.00 0.00 0.00 0.00 0.00 0.00 0.00 0.00 0.00
0.00 0.00 0.00 0.00 0.00 0.00 0.00 0.00 0.00 0.00 0.00 0.00 -0.00 -0.00 -0.07 -0.14 -0.14 -0.20 -0.07 -0.07 -0.07 -0.04 -0.02 -0.02 -0.02 -0.02 -0.01 -0.01 -0.01 -0.01 -0.03 -0.01 -0.01 -0.01 -0.01 -0.01 -0.01 -0.04 -0.03 0.02 0.02 0.03 0.03 0.02 0.02 0.02 0.03 0.03 0.03 0.03 0.02 0.02 0.02 0.02 0.01 0.00 0.00 0.00 0.00 0.00 0.00 -0.04 -0.01 -0.01 -0.01 -0.01 -0.01 0.02 0.00 0.00 0.07 0.08 0.14 0.14 0.22 0.11 0.11 0.08 0.09 0.13 0.13 0.10 0.00 0.00 0.00 0.00 0.00 0.00 0.00 0.00 0.00 0.00 0.00 0.00 0.00 0.00 0.00 0.00 0.00 0.00 0.00 0.00 0.00
0.00 0.00 0.00 0.00 0.00 0.00 0.00 0.00 0.00 0.00 0.00 0.00 0.00 0.00 -0.00 -0.04 -0.04 -0.17 -0.10 -0.03 -0.03 -0.02 -0.01 -0.02 -0.02 -0.02 -0.02 -0.02 -0.01 -0.01 -0.01 -0.01 -0.02 -0.02 -0.02 -0.01 -0.01 -0.02 -0.01 0.01 0.01 0.03 0.03 0.03 0.03 0.03 0.03 0.03 0.03 0.03 0.02 0.02 0.01 0.01 0.01 0.01 0.01 0.00 0.00 0.00 0.00 -0.04 0.00 0.01 -0.01 -0.01 -0.03 -0.02 0.06 0.06 0.07 0.07 0.15 0.15 0.17 0.11 0.11 0.10 0.10 0.13 0.13 0.09 0.08 0.04 0.00 0.00 0.00 0.00 0.00 0.00 0.00 0.00 0.00 0.00 0.00 0.00 0.00 0.00 0.00 0.00 0.00 0.00 0.00
0.00 0.00 0.00 0.00 0.00 0.00 0.00 0.00 0.00 0.00 0.00 0.00 0.00 0.00 -0.00 -0.00 -0.00 -0.05 -0.10 -0.03 -0.03 -0.00 -0.00 -0.01 -0.02 -0.02 -0.02 -0.02 -0.02 -0.02 -0.01 -0.01 -0.02 -0.02 -0.03 -0.02 -0.02 -0.01 0.00 0.02 0.02 0.03 0.02 0.02 0.03 0.03 0.04 0.04 0.03 0.03 0.02 0.02 0.01 0.01 0.01 0.01 0.01 0.00 0.00 0.00 0.00 0.00 -0.00 -0.01 -0.02 -0.02 -0.04 -0.03 0.07 0.07 0.10 0.05 0.12 0.12 0.17 0.18 0.18 0.12 0.14 0.10 0.10 0.06 0.07 0.05 0.02 0.02 0.00 0.00 0.00 0.00 0.00 0.00 0.00 0.00 0.00 0.00 0.00 0.00 0.00 0.00 0.00 0.00 0.00
0.00 0.00 0.00 0.00 0.00 0.00 0.00 0.00 0.00 0.00 0.00 -0.00 0.00 0.00 -0.00 -0.00 -0.00 -0.02 -0.02 -0.02 -0.02 -0.01 -0.01 -0.01 -0.01 -0.01 -0.02 -0.03 -0.03 -0.03 -0.02 -0.01 -0.02 -0.02 -0.04 -0.03 -0.03 -0.01 0.01 0.03 0.03 0.03 0.04 0.04 0.04 0.04 0.05 0.05 0.03 0.03 0.02 0.02 0.01 0.01 0.01 0.01 0.01 0.00 0.00 0.00 0.00 0.00 -0.00 0.02 0.01 0.01 -0.01 -0.00 0.05 0.05 0.11 0.10 0.08 0.08 0.12 0.16 0.16 0.18 0.16 0.13 0.13 0.06 0.06 0.04 0.01 0.01 0.00 0.00 0.00 0.00 0.00 0.00 0.00 0.00 0.00 0.00 0.00 0.00 0.00 0.00 0.00 0.00 0.00
0.00 0.00 0.00 0.00 0.00 0.00 0.00 0.00 0.00 0.00 0.00 -0.00 -0.00 -0.00 0.00 -0.00 -0.00 -0.00 -0.04 -0.02 -0.02 -0.01 -0.01 -0.01 -0.01 -0.01 -0.01 -0.02 -0.04 -0.04 -0.04 -0.01 -0.02 -0.02 -0.04 -0.05 -0.05 -0.02 0.01 0.02 0.02 0.03 0.04 0.05 0.05 0.05 0.06 0.06 0.04 0.04 0.03 0.02 0.01 0.01 0.01 0.01 0.01 0.01 0.00 0.00 0.00 0.00 0.02 0.01 0.01 0.01 0.01 0.04 0.10 0.10 0.11 0.14 0.08 0.08 0.08 0.16 0.16 0.19 0.15 0.15 0.15 0.13 0.07 0.04 0.02 0.02 0.00 0.00 0.00 0.00 0.00 0.00 0.00 0.00 0.00 0.00 0.00 0.00 0.00 0.00 0.00 0.00 0.00
0.00 0.00 0.00 0.00 0.00 0.00 0.00 0.00 0.00 0.00 0.00 -0.00 0.00 0.00 0.00 -0.00 -0.00 -0.00 -0.03 -0.03 -0.03 -0.01 -0.00 -0.00 -0.01 -0.01 -0.01 -0.02 -0.04 -0.04 -0.05 -0.04 -0.02 -0.02 -0.04 -0.06 -0.06 -0.02 0.00 0.02 0.02 0.02 0.03 0.05 0.05 0.05 0.06 0.08 0.08 0.08 0.04 0.03 0.02 0.02 0.02 0.01 0.01 0.01 0.01 0.00 0.00 0.00 -0.01 -0.02 0.03 0.03 0.03 0.03 0.13 0.13 0.17 0.18 0.11 0.11 0.15 0.18 0.18 0.19 0.16 0.20 0.20 0.13 0.09 0.07 0.03 0.03 0.01 0.00 0.00 0.00 0.00 0.00 0.00 0.00 0.00 0.00 0.00 0.00 0.00 0.00 0.00 0.00 0.00
0.00 0.00 0.00 0.00 0.00 0.00 0.00 0.00 0.00 0.00 0.00 0.00 0.00 0.00 0.00 -0.00 -0.00 -0.00 -0.01 -0.04 -0.04 -0.02 -0.02 -0.01 -0.00 -0.00 -0.01 -0.02 -0.04 -0.04 -0.06 -0.06 -0.04 -0.04 -0.05 -0.07 -0.07 -0.02 0.01 0.02 0.02 0.02 0.03 0.04 0.05 0.05 0.05 0.05 0.06 0.06 0.05 0.05 0.04 0.04 0.03 0.03 0.03 0.02 0.02 0.01 0.01 0.00 -0.01 -0.02 0.04 0.04 0.07 0.06 0.19 0.19 0.20 0.23 0.14 0.14 0.18 0.23 0.23 0.15 0.12 0.17 0.17 0.13 0.10 0.10 0.07 0.07 0.03 0.03 0.00 0.00 0.00 0.00 0.00 0.00 0.00 0.00 0.00 0.00 0.00 0.00 0.00 0.00 0.00
0.00 0.00 0.00 0.00 0.00 0.00 0.00 0.00 0.00 0.00 0.00 0.00 0.00 0.00 -0.00 -0.00 -0.00 -0.00 -0.00 -0.04 -0.04 -0.02 -0.01 -0.02 -0.01 -0.01 -0.01 -0.02 -0.03 -0.03 -0.05 -0.06 -0.04 -0.04 -0.05 -0.09 -0.09 -0.02 0.01 0.03 0.03 0.02 0.03 0.03 0.04 0.04 0.03 0.03 0.05 0.05 0.06 0.05 0.04 0.04 0.04 0.04 0.04 0.03 0.03 0.08 0.08 0.08 0.00 0.03 0.07 0.07 0.12 0.07 0.12 0.12 0.20 0.22 0.21 0.21 0.21 0.20 0.20 0.16 0.14 0.13 0.13 0.13 0.08 0.08 0.06 0.06 0.04 0.02 0.01 0.01 0.00 0.00 0.00 0.00 0.00 0.00 0.00 0.00 0.00 0.00 0.00 0.00 0.00
0.00 0.00 0.00 0.00 0.00 0.00 0.00 0.00 0.00 0.00 0.00 0.00 -0.00 -0.00 -0.00 -0.00 -0.00 -0.00 -0.00 -0.02 -0.02 -0.03 -0.01 -0.04 -0.01 -0.01 -0.01 -0.02 -0.03 -0.03 -0.05 -0.06 -0.04 -0.04 -0.03 -0.08 -0.08 -0.10 -0.03 0.02 0.02 0.03 0.03 0.03 0.02 0.02 0.01 -0.01 0.04 0.04 0.05 0.04 0.05 0.05 0.05 0.04 0.04 0.04 0.03 0.07 0.07 0.11 0.11 0.14 0.14 0.14 0.11 0.09 0.11 0.11 0.15 0.20 0.21 0.21 0.25 0.18 0.18 0.15 0.19 0.10 0.10 0.10 0.14 0.09 0.06 0.06 0.04 0.00 0.01 0.01 0.00 0.00 0.00 0.00 0.00 0.00 0.00 0.00 0.00 0.00 0.00 0.00 0.00
0.00 0.00 0.00 0.00 0.00 0.00 0.00 0.00 0.00 0.00 0.00 0.00 -0.00 -0.00 -0.00 -0.00 -0.00 -0.00 -0.00 -0.00 -0.00 -0.01 -0.01 -0.02 -0.02 -0.02 -0.01 -0.03 -0.04 -0.04 -0.04 -0.05 -0.04 -0.04 -0.02 -0.06 -0.06 -0.08 -0.05 -0.02 -0.02 0.00 0.02 0.03 0.01 0.01 0.00 -0.00 0.03 0.03 0.04 0.05 0.09 0.09 0.11 0.07 0.07 0.04 0.04 0.03 0.03 0.08 0.10 0.15 0.18 0.18 0.14 0.13 0.10 0.10 0.14 0.16 0.22 0.22 0.25 0.29 0.29 0.24 0.27 0.24 0.24 0.13 0.11 0.14 0.11 0.11 0.05 0.05 0.00 0.00 0.00 0.00 0.00 0.00 0.00 0.00 0.00 0.00 0.00 0.00 0.00 0.00 0.00
0.00 0.00 0.00 0.00 0.00 0.00 0.00 0.00 0.00 0.00 0.00 0.00 -0.00 -0.00 -0.00 -0.00 -0.00 -0.00 -0.00 -0.00 -0.00 -0.03 -0.03 -0.02 -0.01 -0.01 -0.01 -0.03 -0.04 -0.04 -0.04 -0.04 -0.04 -0.04 -0.02 -0.03 -0.03 -0.06 -0.08 -0.02 -0.02 -0.01 -0.01 0.01 0.00 0.00 -0.01 -0.01 0.01 0.01 0.04 0.07 0.20 0.20 0.17 0.13 0.13 0.07 0.10 0.08 0.08 0.08 0.14 0.13 0.16 0.16 0.15 0.12 0.16 0.16 0.12 0.17 0.23 0.23 0.26 0.30 0.30 0.30 0.29 0.29 0.29 0.19 0.16 0.17 0.13 0.13 0.10 0.11 0.05 0.05 0.01 0.01 0.00 0.00 0.00 0.00 0.00 0.00 0.00 0.01 0.01 0.01 0.01
0.00 0.00 0.00 0.00 0.00 0.00 0.00 0.00 0.00 0.00 0.00 0.00 0.00 0.00 -0.00 -0.00 -0.00 -0.00 0.00 0.00 0.00 -0.01 -0.07 -0.04 -0.01 -0.01 -0.01 -0.02 -0.04 -0.04 -0.04 -0.04 -0.03 -0.03 -0.02 -0.02 -0.02 -0.05 -0.11 -0.06 -0.06 -0.01 0.00 -0.01 -0.00 -0.00 -0.00 -0.02 -0.00 -0.00 0.05 0.16 0.21 0.21 0.17 0.10 0.10 0.11 0.08 0.07 0.07 0.08 0.13 0.13 0.14 0.14 0.14 0.14 0.13 0.13 0.14 0.15 0.24 0.24 0.30 0.30 0.30 0.31 0.31 0.28 0.28 0.26 0.23 0.20 0.17 0.17 0.14 0.12 0.08 0.08 0.06 0.04 0.03 0.03 0.02 0.01 0.01 0.00 0.01 0.02 0.02 0.01 0.02
0.00 0.00 0.00 0.00 0.00 0.00 0.00 0.00 0.00 0.00 0.00 0.00 0.00 0.00 -0.00 -0.00 -0.00 -0.00 0.00 -0.00 -0.00 -0.00 -0.02 -0.07 -0.01 -0.01 -0.01 -0.02 -0.03 -0.03 -0.04 -0.04 -0.03 -0.03 -0.02 -0.02 -0.02 -0.05 -0.13 -0.12 -0.12 -0.05 0.00 0.01 0.01 0.01 0.01 -0.02 -0.00 -0.00 0.03 0.16 0.17 0.17 0.16 0.12 0.12 0.10 0.06 0.07 0.07 0.07 0.09 0.13 0.14 0.14 0.13 0.15 0.16 0.16 0.19 0.20 0.21 0.21 0.24 0.26 0.26 0.30 0.31 0.31 0.31 0.32 0.35 0.26 0.20 0.20 0.19 0.16 0.12 0.12 0.09 0.16 0.08 0.08 0.05 0.03 0.03 0.03 0.02 0.00 0.00 0.00 0.00
0.00 0.00 0.00 0.00 0.00 0.00 0.00 0.00 0.00 0.00 0.00 0.00 0.00 0.00 -0.00 -0.00 -0.00 -0.00 0.00 -0.00 -0.00 -0.00 -0.00 -0.01 -0.04 -0.04 -0.02 -0.02 -0.02 -0.02 -0.03 -0.04 -0.04 -0.04 -0.03 -0.02 -0.02 -0.09 -0.13 -0.15 -0.15 -0.08 -0.02 -0.01 0.00 0.00 0.00 -0.06 -0.03 -0.03 0.04 0.15 0.15 0.15 0.14 0.10 0.10 0.07 0.06 0.06 0.06 0.09 0.11 0.12 0.15 0.15 0.15 0.13 0.10 0.10 0.16 0.18 0.23 0.23 0.22 0.22 0.22 0.28 0.33 0.32 0.32 0.39 0.44 0.39 0.28 0.28 0.22 0.29 0.23 0.23 0.20 0.19 0.14 0.14 0.05 0.05 0.05 0.03 0.01 0.00 0.00 0.00 0.00
0.00 0.00 0.00 0.00 0.00 0.00 0.00 0.00 0.00 0.00 0.00 0.00 -0.00 -0.00 -0.00 -0.01 -0.01 -0.01 -0.00 -0.00 -0.00 -0.00 0.00 -0.00 -0.01 -0.01 -0.02 -0.03 -0.02 -0.02 -0.02 -0.03 -0.05 -0.05 -0.05 -0.20 -0.20 -0.11 -0.10 -0.12 -0.12 -0.11 -0.06 -0.06 -0.02 -0.02 -0.08 -0.07 -0.01 -0.01 0.08 0.07 0.13 0.13 0.15 0.10 0.10 0.08 0.07 0.05 0.05 0.06 0.06 0.08 0.13 0.13 0.13 0.10 0.08 0.08 0.11 0.17 0.20 0.20 0.21 0.23 0.23 0.29 0.33 0.33 0.33 0.37 0.50 0.48 0.42 0.42 0.30 0.31 0.29 0.29 0.22 0.16 0.14 0.14 0.10 0.05 0.05 0.03 0.02 0.00 0.00 0.00 0.00
0.00 0.00 0.00 0.00 0.00 0.00 0.00 0.00 0.00 0.00 0.00 0.00 -0.00 -0.00 -0.00 -0.01 -0.01 -0.01 -0.01 -0.00 -0.00 -0.00 0.00 0.00 -0.00 -0.00 -0.02 -0.05 -0.03 -0.03 -0.03 -0.05 -0.09 -0.09 -0.17 -0.24 -0.24 -0.24 -0.10 -0.10 -0.10 -0.11 -0.10 -0.17 -0.19 -0.19 -0.14 -0.09 -0.02 -0.02 0.08 0.05 0.05 0.05 0.07 0.03 0.03 0.00 0.02 0.01 0.01 0.01 0.01 0.03 0.07 0.07 0.11 0.08 0.06 0.06 0.11 0.14 0.18 0.18 0.23 0.24 0.24 0.27 0.29 0.31 0.31 0.40 0.46 0.47 0.41 0.41 0.38 0.27 0.25 0.25 0.21 0.14 0.11 0.11 0.09 0.07 0.07 0.04 0.02 0.00 0.00 0.00 0.00
0.00 0.00 0.00 0.00 0.00 0.00 0.00 0.00 0.00 0.00 0.00 0.00 0.00 0.00 -0.00 -0.01 -0.01 -0.02 -0.02 -0.01 -0.01 -0.01 -0.00 0.00 -0.00 -0.00 -0.00 -0.03 -0.05 -0.05 -0.03 -0.07 -0.11 -0.11 -0.17 -0.17 -0.17 -0.22 -0.14 -0.12 -0.12 -0.10 -0.15 -0.43 -0.40 -0.40 -0.33 -0.22 -0.10 -0.10 -0.06 -0.02 0.03 0.03 0.07 0.03 0.03 0.02 0.04 0.00 0.00 -0.01 0.01 0.01 0.03 0.03 0.06 0.05 0.05 0.05 0.05 0.14 0.15 0.15 0.20 0.23 0.23 0.23 0.22 0.26 0.26 0.36 0.30 0.37 0.34 0.34 0.29 0.25 0.23 0.23 0.19 0.15 0.11 0.11 0.09 0.05 0.05 0.03 0.00 0.00 0.00 0.00 0.00
0.00 0.00 0.00 0.00 0.00 0.00 0.00 0.00 0.00 0.00 0.00 0.00 0.00 0.00 -0.00 -0.02 -0.02 -0.02 -0.02 -0.02 -0.02 -0.02 -0.01 -0.00 0.00 0.00 -0.00 -0.03 -0.04 -0.04 -0.04 -0.07 -0.12 -0.12 -0.14 -0.14 -0.14 -0.18 -0.23 -0.18 -0.18 -0.22 -0.34 -0.65 -0.56 -0.56 -0.50 -0.34 -0.29 -0.29 -0.36 -0.14 -0.01 -0.01 0.03 0.06 0.06 0.06 0.06 0.03 0.03 0.02 0.06 0.00 0.01 0.01 0.02 0.01 0.04 0.04 0.05 0.05 0.12 0.12 0.16 0.20 0.20 0.23 0.26 0.24 0.24 0.26 0.24 0.28 0.29 0.29 0.26 0.23 0.22 0.22 0.18 0.14 0.11 0.11 0.07 0.04 0.04 0.03 0.01 0.00 0.00 0.00 0.00
0.00 0.00 0.00 0.00 0.00 0.00 0.00 0.00 0.00 0.00 0.00 0.00 -0.00 -0.00 -0.00 -0.01 -0.01 -0.03 -0.02 -0.03 -0.03 -0.02 -0.02 -0.01 -0.01 -0.01 -0.01 -0.02 -0.03 -0.03 -0.03 -0.06 -0.10 -0.10 -0.12 -0.19 -0.19 -0.24 -0.24 -0.24 -0.24 -0.41 -0.64 -0.80 -0.83 -0.83 -0.75 -0.49 -0.38 -0.38 -0.65 -0.28 -0.06 -0.06 0.00 0.03 0.03 0.06 0.06 0.10 0.10 0.09 0.11 0.05 0.01 0.01 0.00 0.00 0.01 0.01 0.02 0.04 0.09 0.09 0.14 0.19 0.19 0.22 0.22 0.23 0.23 0.24 0.23 0.25 0.25 0.25 0.26 0.23 0.22 0.22 0.19 0.15 0.12 0.12 0.09 0.05 0.05 0.03 0.01 0.00 0.00 0.00 0.00
0.00 0.00 0.00 0.00 0.00 0.00 0.00 0.00 0.00 0.00 0.00 0.00 -0.00 -0.00 -0.00 -0.01 -0.01 -0.03 -0.02 -0.02 -0.02 -0.02 -0.03 -0.03 -0.03 -0.03 -0.02 -0.02 -0.02 -0.02 -0.02 -0.03 -0.08 -0.08 -0.07 -0.12 -0.12 -0.24 -0.22 -0.27 -0.27 -0.50 -0.59 -0.71 -0.97 -0.97 -0.94 -0.80 -0.70 -0.70 -0.87 -0.68 -0.20 -0.20 -0.03 -0.05 -0.05 0.06 0.10 0.15 0.15 0.15 0.15 0.12 0.06 0.06 0.01 0.02 0.01 0.01 0.00 0.02 0.01 0.01 0.12 0.15 0.15 0.23 0.22 0.22 0.22 0.23 0.19 0.22 0.26 0.26 0.27 0.24 0.21 0.21 0.18 0.16 0.13 0.13 0.10 0.09 0.09 0.07 0.01 0.00 0.00 0.00 0.00
0.00 0.00 0.00 0.00 0.00 0.00 0.00 0.00 0.00 0.00 0.00 0.00 -0.00 -0.00 -0.00 -0.02 -0.02 -0.03 -0.03 -0.00 -0.00 -0.00 -0.02 -0.04 -0.07 -0.07 -0.07 -0.06 -0.02 -0.02 -0.02 -0.02 -0.04 -0.04 -0.04 -0.08 -0.08 -0.20 -0.20 -0.26 -0.26 -0.50 -0.64 -0.75 -1.02 -1.02 -1.02 -1.02 -1.18 -1.18 -1.07 -0.89 -0.66 -0.66 -0.19 -0.26 -0.26 -0.06 0.09 0.11 0.11 0.13 0.13 0.15 0.11 0.11 0.03 0.05 0.05 0.05 0.02 0.00 0.01 0.01 0.01 0.11 0.11 0.16 0.10 0.21 0.21 0.21 0.15 0.15 0.22 0.22 0.23 0.26 0.21 0.21 0.19 0.15 0.14 0.14 0.11 0.09 0.09 0.07 0.04 0.01 0.01 0.01 0.00
0.00 0.00 0.00 0.00 0.00 0.00 0.00 0.00 0.00 0.00 0.00 0.00 0.00 0.00 -0.01 -0.02 -0.02 -0.03 -0.04 -0.00 -0.00 -0.00 -0.00 -0.02 -0.06 -0.06 -0.08 -0.07 -0.05 -0.05 -0.03 -0.03 -0.03 -0.03 -0.03 -0.05 -0.05 -0.08 -0.19 -0.22 -0.22 -0.38 -0.61 -0.73 -0.78 -0.78 -1.06 -1.19 -1.09 -1.09 -1.19 -1.07 -0.88 -0.88 -0.46 -0.40 -0.40 -0.24 -0.09 0.05 0.05 0.11 0.05 0.11 0.11 0.11 0.09 0.06 0.07 0.07 0.05 0.00 -0.01 -0.01 0.01 0.03 0.03 0.07 0.08 0.10 0.10 0.14 0.11 0.12 0.17 0.17 0.16 0.24 0.25 0.25 0.18 0.16 0.15 0.15 0.13 0.11 0.11 0.08 0.05 0.04 0.04 0.01 0.00
0.00 0.00 0.00 0.00 0.00 0.00 0.00 0.00 0.00 0.00 0.00 0.00 0.00 0.00 -0.01 -0.02 -0.02 -0.02 -0.04 -0.00 -0.00 -0.00 -0.00 -0.00 -0.00 -0.00 -0.05 -0.08 -0.08 -0.08 -0.06 -0.04 -0.04 -0.04 -0.05 -0.05 -0.05 -0.05 -0.15 -0.21 -0.21 -0.35 -0.64 -0.73 -0.78 -0.78 -0.82 -0.95 -0.74 -0.74 -0.88 -1.08 -0.99 -0.99 -0.81 -0.43 -0.43 -0.29 -0.21 -0.05 -0.05 0.01 -0.02 0.04 0.09 0.09 0.10 0.08 0.05 0.05 0.03 -0.00 -0.02 -0.02 0.00 0.03 0.03 0.09 0.19 0.16 0.16 0.11 0.09 0.08 0.09 0.09 0.08 0.18 0.22 0.22 0.22 0.20 0.18 0.18 0.16 0.17 0.17 0.10 0.07 0.06 0.06 0.03 0.01
0.00 0.00 0.00 0.00 0.00 0.00 0.00 0.00 0.00 0.00 0.00 0.00 0.00 0.00 -0.00 -0.02 -0.02 -0.02 -0.03 -0.00 -0.00 -0.00 -0.00 -0.00 -0.00 -0.00 -0.00 -0.03 -0.05 -0.05 -0.08 -0.08 -0.09 -0.09 -0.10 -0.11 -0.11 -0.11 -0.12 -0.14 -0.14 -0.18 -0.24 -0.47 -0.49 -0.49 -0.50 -0.56 -0.64 -0.64 -0.59 -0.64 -0.68 -0.68 -0.63 -0.44 -0.44 -0.30 -0.28 -0.26 -0.26 -0.24 -0.21 -0.15 -0.09 -0.09 -0.06 -0.07 -0.04 -0.04 -0.05 -0.02 -0.03 -0.03 -0.01 0.09 0.09 0.25 0.34 0.39 0.39 0.30 0.18 0.12 0.05 0.05 0.03 0.02 0.19 0.19 0.22 0.23 0.21 0.21 0.19 0.26 0.26 0.23 0.16 0.13 0.13 0.05 0.04
0.00 0.00 0.00 0.00 0.00 0.00 0.00 0.00 0.00 0.00 0.00 0.00 0.00 0.00 -0.00 -0.01 -0.01 -0.02 -0.02 -0.00 -0.00 -0.00 -0.01 -0.01 -0.01 -0.01 -0.01 -0.03 -0.04 -0.04 -0.06 -0.09 -0.10 -0.10 -0.10 -0.13 -0.13 -0.14 -0.16 -0.16 -0.16 -0.17 -0.18 -0.28 -0.39 -0.39 -0.51 -0.61 -0.75 -0.75 -0.74 -0.74 -0.68 -0.68 -0.51 -0.52 -0.52 -0.45 -0.31 -0.27 -0.27 -0.25 -0.18 -0.17 -0.13 -0.13 -0.10 -0.04 -0.05 -0.05 -0.06 -0.06 -0.08 -0.08 -0.03 0.03 0.03 0.18 0.20 0.25 0.25 0.29 0.18 0.13 0.10 0.10 0.05 0.03 0.13 0.13 0.19 0.21 0.21 0.21 0.20 0.24 0.24 0.21 0.16 0.14 0.14 0.13 0.05
0.00 0.00 0.00 0.00 0.00 0.00 0.00 0.00 0.00 0.00 0.00 0.00 0.00 0.00 0.00 -0.01 -0.01 -0.02 -0.03 -0.01 -0.01 -0.00 -0.01 -0.02 -0.01 -0.01 -0.01 -0.03 -0.04 -0.04 -0.05 -0.06 -0.08 -0.08 -0.09 -0.10 -0.10 -0.13 -0.14 -0.16 -0.16 -0.18 -0.21 -0.23 -0.40 -0.40 -0.55 -0.68 -0.77 -0.77 -0.85 -0.79 -0.73 -0.73 -0.56 -0.64 -0.64 -0.55 -0.43 -0.32 -0.32 -0.32 -0.25 -0.13 -0.13 -0.13 -0.10 -0.06 0.01 0.01 0.06 0.06 -0.17 -0.17 -0.11 -0.00 -0.00 0.01 0.10 0.08 0.08 0.15 0.15 0.18 0.13 0.13 0.10 0.10 0.13 0.13 0.23 0.22 0.23 0.23 0.21 0.20 0.20 0.18 0.15 0.15 0.15 0.12 0.09
0.00 0.00 0.00 0.00 0.00 0.00 0.00 0.00 0.00 0.00 0.00 0.00 0.00 0.00 0.00 -0.01 -0.01 -0.02 -0.02 -0.06 -0.06 -0.05 -0.06 -0.03 -0.02 -0.02 -0.03 -0.02 -0.04 -0.04 -0.05 -0.07 -0.08 -0.08 -0.08 -0.08 -0.08 -0.11 -0.15 -0.17 -0.17 -0.15 -0.23 -0.21 -0.26 -0.26 -0.59 -0.62 -0.69 -0.69 -0.83 -0.82 -0.80 -0.80 -0.82 -0.71 -0.71 -0.62 -0.52 -0.38 -0.38 -0.32 -0.26 -0.17 -0.12 -0.12 -0.07 -0.04 0.00 0.00 0.11 0.08 -0.00 -0.00 -0.22 -0.13 -0.13 -0.15 -0.00 0.07 0.07 0.10 0.19 0.20 0.16 0.16 0.17 0.12 0.16 0.16 0.18 0.22 0.21 0.21 0.20 0.16 0.16 0.18 0.18 0.20 0.20 0.18 0.17
0.00 0.00 0.00 0.00 0.00 0.00 0.00 0.00 0.00 0.00 0.00 0.00 0.00 0.00 0.00 -0.01 -0.01 -0.02 -0.02 -0.03 -0.03 -0.08 -0.10 -0.08 -0.04 -0.04 -0.05 -0.05 -0.06 -0.06 -0.07 -0.09 -0.07 -0.07 -0.06 -0.07 -0.07 -0.07 -0.13 -0.14 -0.14 -0.18 -0.29 -0.27 -0.32 -0.32 -0.45 -0.52 -0.58 -0.58 -0.68 -0.76 -0.79 -0.79 -0.78 -0.74 -0.74 -0.58 -0.54 -0.50 -0.50 -0.33 -0.27 -0.18 -0.13 -0.13 -0.07 -0.02 0.03 0.03 0.15 0.09 0.07 0.07 -0.01 -0.17 -0.17 -0.00 -0.00 0.10 0.10 0.15 0.24 0.32 0.27 0.27 0.22 0.23 0.25 0.25 0.22 0.22 0.21 0.21 0.20 0.20 0.20 0.20 0.22 0.32 0.32 0.33 0.25
0.00 0.00 0.00 0.00 0.00 0.00 0.00 0.00 0.00 0.00 0.00 0.00 0.00 0.00 0.00 -0.00 -0.00 -0.01 -0.02 -0.02 -0.02 -0.07 -0.08 -0.11 -0.06 -0.06 -0.06 -0.08 -0.09 -0.09 -0.10 -0.09 -0.06 -0.06 -0.04 -0.05 -0.05 -0.06 -0.09 -0.14 -0.14 -0.23 -0.31 -0.39 -0.36 -0.36 -0.37 -0.53 -0.55 -0.55 -0.62 -0.72 -0.79 -0.79 -0.71 -0.71 -0.71 -0.58 -0.53 -0.45 -0.45 -0.38 -0.24 -0.18 -0.12 -0.12 -0.03 -0.01 0.02 0.02 0.02 0.03 0.03 0.03 0.02 0.03 0.03 0.12 0.16 0.19 0.19 0.22 0.30 0.29 0.32 0.32 0.28 0.28 0.25 0.25 0.30 0.32 0.25 0.25 0.23 0.35 0.35 0.29 0.29 0.43 0.43 0.43 0.39
0.00 0.00 0.00 0.00 0.00 0.00 0.00 0.00 0.00 0.00 0.00 0.00 0.00 0.00 0.00 0.00 0.00 -0.01 -0.01 -0.01 -0.01 -0.04 -0.09 -0.11 -0.11 -0.11 -0.10 -0.10 -0.11 -0.11 -0.11 -0.08 -0.04 -0.04 -0.02 -0.04 -0.04 -0.05 -0.06 -0.15 -0.15 -0.24 -0.30 -0.38 -0.34 -0.34 -0.33 -0.48 -0.60 -0.60 -0.65 -0.78 -0.73 -0.73 -0.60 -0.59 -0.59 -0.58 -0.42 -0.42 -0.42 -0.28 -0.24 -0.13 -0.06 -0.06 0.04 0.08 0.07 0.07 0.06 0.13 0.03 0.03 0.02 0.03 0.03 0.03 0.27 0.35 0.35 0.40 0.40 0.36 0.33 0.33 0.34 0.31 0.28 0.28 0.35 0.36 0.40 0.40 0.35 0.46 0.46 0.48 0.44 0.51 0.51 0.48 0.46
0.00 0.00 0.00 0.00 0.00 0.00 0.00 0.00 0.00 0.00 0.00 0.00 0.00 0.00 0.00 0.00 0.00 -0.00 -0.01 -0.01 -0.01 -0.02 -0.11 -0.12 -0.13 -0.13 -0.10 -0.11 -0.12 -0.12 -0.08 -0.06 -0.04 -0.04 -0.06 -0.03 -0.03 -0.04 -0.05 -0.10 -0.10 -0.20 -0.28 -0.32 -0.31 -0.31 -0.37 -0.55 -0.62 -0.62 -0.71 -0.77 -0.76 -0.76 -0.57 -0.48 -0.48 -0.42 -0.33 -0.29 -0.29 -0.21 -0.20 -0.16 -0.03 -0.03 0.08 0.11 0.14 0.14 0.15 0.21 0.16 0.16 0.02 0.01 0.01 0.06 0.09 0.32 0.32 0.36 0.38 0.42 0.34 0.34 0.38 0.36 0.34 0.34 0.43 0.45 0.45 0.45 0.48 0.42 0.42 0.44 0.49 0.51 0.51 0.55 0.52
0.00 0.00 0.00 0.00 0.00 0.00 0.00 0.00 0.00 0.00 0.00 0.00 0.00 0.00 0.00 0.00 0.00 -0.00 -0.00 -0.01 -0.01 -0.02 -0.06 -0.10 -0.15 -0.15 -0.10 -0.09 -0.11 -0.11 -0.09 -0.04 -0.04 -0.04 -0.07 -0.03 -0.03 -0.03 -0.04 -0.07 -0.07 -0.27 -0.29 -0.31 -0.36 -0.36 -0.45 -0.58 -0.62 -0.62 -0.68 -0.70 -0.73 -0.73 -0.63 -0.45 -0.45 -0.31 -0.22 -0.17 -0.17 -0.15 -0.16 -0.14 0.01 0.01 0.06 0.10 0.15 0.15 0.20 0.27 0.28 0.28 0.23 0.09 0.09 0.18 0.14 0.14 0.14 0.36 0.41 0.44 0.40 0.40 0.37 0.38 0.38 0.38 0.45 0.53 0.49 0.49 0.47 0.42 0.42 0.40 0.44 0.43 0.43 0.47 0.51
0.00 0.00 0.00 0.00 0.00 0.00 0.00 0.00 0.00 0.00 0.00 0.00 0.00 0.00 0.00 0.00 0.00 -0.00 -0.01 -0.01 -0.01 -0.02 -0.04 -0.07 -0.14 -0.14 -0.16 -0.12 -0.11 -0.11 -0.10 -0.03 -0.05 -0.05 -0.06 -0.06 -0.06 -0.02 -0.04 -0.12 -0.12 -0.24 -0.27 -0.37 -0.39 -0.39 -0.48 -0.53 -0.50 -0.50 -0.56 -0.59 -0.64 -0.64 -0.52 -0.49 -0.49 -0.35 -0.24 -0.22 -0.22 -0.11 -0.10 -0.08 -0.05 -0.05 0.06 0.13 0.16 0.16 0.21 0.33 0.37 0.37 0.35 0.26 0.26 0.28 0.27 0.28 0.28 0.45 0.45 0.41 0.37 0.37 0.33 0.37 0.42 0.42 0.44 0.47 0.53 0.53 0.48 0.44 0.44 0.37 0.38 0.37 0.37 0.38 0.42
0.00 0.00 0.00 0.00 0.00 0.00 0.00 0.00 0.00 0.00 0.00 0.00 0.00 0.00 0.00 -0.00 -0.00 -0.00 -0.01 -0.01 -0.01 -0.02 -0.03 -0.05 -0.11 -0.11 -0.17 -0.14 -0.13 -0.13 -0.12 -0.06 -0.05 -0.05 -0.06 -0.04 -0.04 -0.05 -0.10 -0.16 -0.16 -0.16 -0.20 -0.38 -0.37 -0.37 -0.28 -0.42 -0.44 -0.44 -0.46 -0.49 -0.43 -0.43 -0.42 -0.45 -0.45 -0.36 -0.26 -0.23 -0.23 -0.18 -0.08 -0.02 0.01 0.01 0.02 0.10 0.20 0.20 0.27 0.32 0.39 0.39 0.42 0.35 0.35 0.42 0.41 0.42 0.42 0.49 0.50 0.38 0.36 0.36 0.32 0.33 0.42 0.42 0.49 0.48 0.52 0.52 0.53 0.49 0.49 0.41 0.37 0.33 0.33 0.30 0.32
0.00 0.00 0.00 0.00 0.00 0.00 0.00 0.00 0.00 0.00 0.00 0.00 0.00 0.00 0.00 0.00 0.00 -0.00 -0.01 -0.02 -0.02 -0.02 -0.03 -0.04 -0.08 -0.08 -0.14 -0.15 -0.11 -0.11 -0.11 -0.07 -0.07 -0.07 -0.07 -0.04 -0.04 -0.06 -0.06 -0.05 -0.05 -0.09 -0.09 -0.31 -0.33 -0.33 -0.18 -0.17 -0.41 -0.41 -0.41 -0.47 -0.52 -0.52 -0.43 -0.44 -0.44 -0.43 -0.31 -0.32 -0.32 -0.24 -0.17 0.00 0.01 0.01 -0.10 -0.07 0.25 0.25 0.30 0.38 0.39 0.39 0.40 0.41 0.41 0.40 0.45 0.47 0.47 0.40 0.38 0.35 0.33 0.33 0.30 0.33 0.38 0.38 0.45 0.54 0.52 0.52 0.50 0.36 0.36 0.40 0.37 0.33 0.33 0.28 0.26
0.00 0.00 0.00 0.00 0.00 0.00 0.00 0.00 0.00 0.00 0.00 0.00 0.00 0.00 0.00 0.00 0.00 -0.00 -0.01 -0.01 -0.01 -0.02 -0.03 -0.04 -0.07 -0.07 -0.09 -0.11 -0.07 -0.07 -0.08 -0.07 -0.07 -0.07 -0.05 -0.04 -0.04 -0.07 -0.08 -0.03 -0.03 -0.06 -0.10 -0.26 -0.25 -0.25 -0.10 -0.12 -0.40 -0.40 -0.44 -0.54 -0.83 -0.83 -0.60 -0.53 -0.53 -0.48 -0.44 -0.39 -0.39 -0.31 -0.25 -0.19 -0.22 -0.22 -0.21 -0.17 -0.09 -0.09 0.32 0.29 0.31 0.31 0.35 0.36 0.36 0.34 0.37 0.40 0.40 0.31 0.29 0.28 0.27 0.27 0.31 0.33 0.39 0.39 0.41 0.44 0.46 0.46 0.30 0.29 0.29 0.29 0.35 0.34 0.34 0.33 0.27
0.00 0.00 0.00 0.00 0.00 0.00 0.00 0.00 0.00 0.00 0.00 0.00 0.00 0.00 0.00 0.00 0.00 0.00 -0.00 -0.01 -0.01 -0.02 -0.03 -0.04 -0.05 -0.05 -0.06 -0.08 -0.05 -0.05 -0.06 -0.07 -0.07 -0.07 -0.02 -0.03 -0.03 -0.05 -0.04 -0.00 -0.00 -0.04 -0.09 -0.13 -0.11 -0.11 -0.07 -0.13 -0.33 -0.33 -0.38 -0.55 -0.82 -0.82 -0.87 -0.68 -0.68 -0.65 -0.57 -0.62 -0.62 -0.43 -0.31 -0.26 -0.24 -0.24 -0.23 -0.20 -0.13 -0.13 0.01 0.19 0.27 0.27 0.29 0.27 0.27 0.29 0.29 0.30 0.30 0.36 0.30 0.32 0.31 0.31 0.33 0.34 0.39 0.39 0.36 0.36 0.36 0.36 0.27 0.27 0.27 0.28 0.29 0.29 0.29 0.35 0.36
0.00 0.00 0.00 0.00 0.00 0.00 0.00 0.00 0.00 0.00 0.00 0.00 0.00 0.00 0.00 0.00 0.00 -0.00 -0.00 -0.01 -0.01 -0.02 -0.03 -0.03 -0.04 -0.04 -0.03 -0.02 -0.02 -0.02 -0.04 -0.06 -0.06 -0.06 -0.02 0.00 0.00 -0.01 -0.05 -0.05 -0.05 0.01 -0.02 -0.04 -0.02 -0.02 -0.07 -0.18 -0.40 -0.40 -0.43 -0.35 -0.51 -0.51 -0.66 -0.72 -0.72 -0.80 -0.70 -0.66 -0.66 -0.57 -0.38 -0.31 -0.24 -0.24 -0.18 -0.12 -0.07 -0.07 0.02 0.08 0.23 0.23 0.24 0.23 0.23 0.23 0.26 0.33 0.33 0.45 0.43 0.39 0.38 0.38 0.38 0.39 0.39 0.39 0.39 0.35 0.32 0.32 0.28 0.25 0.25 0.25 0.26 0.23 0.23 0.25 0.33
0.00 0.00 0.00 0.00 0.00 0.00 0.00 0.00 0.00 0.00 0.00 0.00 0.00 0.00 0.00 0.00 0.00 0.00 -0.00 -0.01 -0.01 -0.02 -0.02 -0.03 -0.03 -0.03 -0.03 -0.02 -0.01 -0.01 -0.01 -0.04 -0.06 -0.06 -0.02 0.01 0.01 0.02 -0.03 -0.06 -0.06 -0.02 -0.00 -0.02 -0.02 -0.02 -0.09 -0.23 -0.34 -0.34 -0.38 -0.28 -0.37 -0.37 -0.49 -0.59 -0.59 -0.73 -0.75 -0.57 -0.57 -0.52 -0.37 -0.28 -0.22 -0.22 -0.15 -0.08 -0.03 -0.03 0.01 0.08 0.15 0.15 0.19 0.16 0.16 0.21 0.22 0.42 0.42 0.41 0.43 0.39 0.35 0.35 0.37 0.43 0.44 0.44 0.47 0.37 0.33 0.33 0.29 0.27 0.27 0.23 0.21 0.18 0.18 0.19 0.21
0.00 0.00 0.00 0.00 0.00 0.00 0.00 0.00 0.00 0.00 0.00 0.00 0.00 0.00 0.00 0.00 0.00 0.00 -0.00 -0.01 -0.01 -0.02 -0.03 -0.03 -0.03 -0.03 -0.04 -0.02 -0.01 -0.01 -0.01 -0.02 -0.04 -0.04 -0.02 0.01 0.01 0.03 0.01 -0.04 -0.04 -0.08 -0.03 -0.02 -0.04 -0.04 -0.04 -0.17 -0.23 -0.23 -0.29 -0.35 -0.34 -0.34 -0.40 -0.52 -0.52 -0.55 -0.41 -0.44 -0.44 -0.46 -0.42 -0.28 -0.22 -0.22 -0.16 -0.11 -0.05 -0.05 -0.02 0.02 0.12 0.12 0.15 0.09 0.09 0.14 0.21 0.30 0.30 0.34 0.37 0.38 0.35 0.35 0.39 0.44 0.46 0.46 0.47 0.45 0.40 0.40 0.29 0.24 0.24 0.19 0.18 0.18 0.18 0.18 0.18
0.00 0.00 0.00 0.00 0.00 0.00 0.00 0.00 0.00 0.00 0.00 0.00 0.00 0.00 0.00 0.00 0.00 0.00 0.00 -0.00 -0.00 -0.01 -0.03 -0.04 -0.03 -0.03 -0.03 -0.01 0.00 0.00 0.01 0.00 -0.01 -0.01 0.01 0.03 0.03 0.04 0.02 0.00 0.00 -0.03 -0.06 -0.05 -0.05 -0.05 -0.04 -0.04 -0.14 -0.14 -0.21 -0.22 -0.33 -0.33 -0.33 -0.38 -0.38 -0.41 -0.34 -0.32 -0.32 -0.35 -0.35 -0.31 -0.19 -0.19 -0.17 -0.12 -0.09 -0.09 -0.07 -0.01 0.05 0.05 0.13 0.04 0.04 0.05 0.08 0.20 0.20 0.14 0.21 0.28 0.33 0.33 0.43 0.45 0.45 0.45 0.44 0.40 0.37 0.37 0.29 0.20 0.20 0.17 0.18 0.16 0.16 0.18 0.24
0.00 0.00 0.00 0.00 0.00 0.00 0.00 0.00 0.00 0.00 0.00 0.00 0.00 0.00 0.00 0.00 0.00 0.00 0.00 -0.00 -0.00 -0.01 -0.02 -0.04 -0.04 -0.04 -0.04 -0.00 0.01 0.01 0.01 0.01 0.00 0.00 0.03 0.04 0.04 0.04 0.01 0.01 0.01 0.02 -0.01 -0.07 -0.06 -0.06 -0.07 -0.08 -0.11 -0.11 -0.15 -0.17 -0.20 -0.20 -0.29 -0.29 -0.29 -0.32 -0.28 -0.27 -0.27 -0.27 -0.28 -0.25 -0.19 -0.19 -0.15 -0.13 -0.10 -0.10 -0.04 -0.02 0.01 0.01 0.06 0.13 0.13 0.13 0.06 0.08 0.08 0.21 0.31 0.34 0.40 0.40 0.38 0.43 0.43 0.43 0.41 0.33 0.31 0.31 0.22 0.20 0.20 0.18 0.16 0.16 0.16 0.16 0.19